TimeCDT,TemperatureF,Dew PointF,Humidity,Sea Level PressureIn,VisibilityMPH,Wind Direction,Wind SpeedMPH,Gust SpeedMPH,PrecipitationIn,Events,Conditions,WindDirDegrees,DateUTC
12:53 AM,50.0,48.0,93,29.94,10.0,Calm,Calm,-,N/A,,Clear,0,2012-10-19 05:53:00
1:53 AM,50.0,46.9,89,29.94,10.0,Calm,Calm,-,N/A,,Clear,0,2012-10-19 06:53:00
2:53 AM,48.9,46.0,90,29.94,10.0,Calm,Calm,-,N/A,,Clear,0,2012-10-19 07:53:00
3:53 AM,46.9,45.0,93,29.94,10.0,Calm,Calm,-,N/A,,Clear,0,2012-10-19 08:53:00
4:53 AM,46.9,44.1,90,29.93,10.0,Calm,Calm,-,N/A,,Clear,0,2012-10-19 09:53:00
5:53 AM,46.0,43.0,89,29.94,10.0,West,3.5,-,N/A,,Clear,270,2012-10-19 10:53:00
6:53 AM,45.0,43.0,93,29.94,10.0,Calm,Calm,-,N/A,,Clear,0,2012-10-19 11:53:00
7:53 AM,46.9,45.0,93,29.94,10.0,West,4.6,-,N/A,,Clear,270,2012-10-19 12:53:00
8:53 AM,57.0,50.0,77,29.96,10.0,West,3.5,-,N/A,,Clear,270,2012-10-19 13:53:00
9:53 AM,66.0,46.0,48,29.98,10.0,Variable,4.6,-,N/A,,Clear,0,2012-10-19 14:53:00
10:53 AM,71.1,37.9,30,29.98,10.0,NW,10.4,17.3,N/A,,Clear,310,2012-10-19 15:53:00
11:53 AM,73.9,39.0,28,29.97,10.0,West,11.5,-,N/A,,Clear,270,2012-10-19 16:53:00
12:53 PM,75.9,35.1,23,29.95,10.0,West,15.0,24.2,N/A,,Clear,280,2012-10-19 17:53:00
1:53 PM,78.1,34.0,20,29.91,10.0,WNW,13.8,20.7,N/A,,Clear,290,2012-10-19 18:53:00
2:53 PM,78.1,30.0,17,29.88,10.0,West,10.4,21.9,N/A,,Clear,280,2012-10-19 19:53:00
3:53 PM,78.1,32.0,19,29.88,10.0,WNW,8.1,-,N/A,,Clear,290,2012-10-19 20:53:00
4:53 PM,77.0,34.0,21,29.88,10.0,West,12.7,17.3,N/A,,Clear,270,2012-10-19 21:53:00
5:53 PM,73.0,37.9,28,29.88,10.0,WNW,4.6,-,N/A,,Clear,290,2012-10-19 22:53:00
6:53 PM,60.1,48.9,67,29.88,10.0,Calm,Calm,-,N/A,,Clear,0,2012-10-19 23:53:00
7:53 PM,55.0,48.9,80,29.90,10.0,Calm,Calm,-,N/A,,Clear,0,2012-10-20 00:53:00
8:53 PM,53.1,48.0,83,29.91,10.0,Calm,Calm,-,N/A,,Clear,0,2012-10-20 01:53:00
9:53 PM,51.1,46.9,86,29.91,10.0,Calm,Calm,-,N/A,,Clear,0,2012-10-20 02:53:00
10:53 PM,50.0,46.9,89,29.92,10.0,Calm,Calm,-,N/A,,Clear,0,2012-10-20 03:53:00
11:53 PM,48.9,46.0,90,29.93,10.0,Calm,Calm,-,N/A,,Clear,0,2012-10-20 04:53:00